| time (UTC) | temp F | wind direction | speed knots | gust knots | rain 1hr in | rain 24hr in | rain mn in | humidity % | barometer mb |
| 20260504231636 | 74 | 24 | 1.7 | 7.0 | 0.00 | 0.00 | 0.00 | 64 | 1016.9 |
| 20260504231132 | 74 | 85 | 0.9 | 7.0 | 0.00 | 0.00 | 0.00 | 63 | 1016.7 |
| 20260504230628 | 74 | 119 | 1.7 | 6.1 | 0.00 | 0.00 | 0.00 | 63 | 1016.5 |
| 20260504230127 | 74 | 101 | 1.7 | 9.6 | 0.00 | 0.00 | 0.00 | 62 | 1016.6 |
| 20260504225625 | 75 | 116 | 0.9 | 5.2 | 0.00 | 0.00 | 0.00 | 62 | 1016.6 |
| 20260504225121 | 75 | 49 | 1.7 | 6.1 | 0.00 | 0.00 | 0.00 | 62 | 1016.6 |
| 20260504224618 | 75 | 117 | 6.1 | 9.6 | 0.00 | 0.00 | 0.00 | 61 | 1016.8 |
| 20260504224115 | 75 | 112 | 5.2 | 7.8 | 0.00 | 0.00 | 0.00 | 61 | 1016.6 |
| 20260504223612 | 76 | 146 | 2.6 | 4.3 | 0.00 | 0.00 | 0.00 | 60 | 1016.6 |
| 20260504223108 | 76 | 136 | 1.7 | 6.1 | 0.00 | 0.00 | 0.00 | 59 | 1016.6 |
| 20260504222605 | 76 | 71 | 2.6 | 7.8 | 0.00 | 0.00 | 0.00 | 58 | 1016.5 |
| 20260504222102 | 76 | 92 | 0.9 | 4.3 | 0.00 | 0.00 | 0.00 | 57 | 1016.4 |
| 20260504221559 | 76 | 149 | 1.7 | 6.1 | 0.00 | 0.00 | 0.00 | 57 | 1016.7 |
| 20260504221055 | 76 | 348 | 2.6 | 7.0 | 0.00 | 0.00 | 0.00 | 58 | 1016.8 |
| 20260504220552 | 76 | 16 | 1.7 | 7.8 | 0.00 | 0.00 | 0.00 | 57 | 1016.8 |
| 20260504220049 | 76 | 121 | 4.3 | 8.7 | 0.00 | 0.00 | 0.00 | 57 | 1016.8 |
| 20260504215546 | 76 | 16 | 3.5 | 9.6 | 0.00 | 0.00 | 0.00 | 57 | 1016.9 |
| 20260504215043 | 77 | 134 | 2.6 | 6.1 | 0.00 | 0.00 | 0.00 | 55 | 1016.8 |
| 20260504214539 | 77 | 115 | 2.6 | 6.1 | 0.00 | 0.00 | 0.00 | 55 | 1016.5 |
| 20260504214036 | 77 | 31 | 1.7 | 2.6 | 0.00 | 0.00 | 0.00 | 54 | 1016.5 |
| 20260504213532 | 76 | 140 | 3.5 | 7.0 | 0.00 | 0.00 | 0.00 | 54 | 1016.7 |
| 20260504213030 | 76 | 153 | 5.2 | 11.3 | 0.00 | 0.00 | 0.00 | 55 | 1016.6 |
| 20260504212525 | 77 | 150 | 6.1 | 9.6 | 0.00 | 0.00 | 0.00 | 53 | 1016.9 |
| 20260504212023 | 77 | 139 | 6.1 | 7.8 | 0.00 | 0.00 | 0.00 | 53 | 1016.6 |
| 20260504211520 | 77 | 136 | 6.1 | 8.7 | 0.00 | 0.00 | 0.00 | 52 | 1016.9 |
| 20260504211017 | 77 | 137 | 2.6 | 7.8 | 0.00 | 0.00 | 0.00 | 52 | 1016.9 |
| 20260504210514 | 77 | 164 | 7.8 | 12.2 | 0.00 | 0.00 | 0.00 | 52 | 1017.1 |
| 20260504210010 | 77 | 158 | 7.0 | 9.6 | 0.00 | 0.00 | 0.00 | 53 | 1016.8 |
| 20260504205508 | 78 | 44 | 3.5 | 7.0 | 0.00 | 0.00 | 0.00 | 51 | 1017.0 |
| 20260504205006 | 78 | 3 | 1.7 | 4.3 | 0.00 | 0.00 | 0.00 | 51 | 1017.0 |
| 20260504204504 | 78 | 135 | 5.2 | 7.8 | 0.00 | 0.00 | 0.00 | 52 | 1016.9 |
| 20260504204003 | 79 | 148 | 6.1 | 9.6 | 0.00 | 0.00 | 0.00 | 51 | 1016.8 |
| 20260504203500 | 78 | 86 | 1.7 | 4.3 | 0.00 | 0.00 | 0.00 | 51 | 1017.1 |
| 20260504202956 | 77 | 136 | 5.2 | 7.0 | 0.00 | 0.00 | 0.00 | 52 | 1017.1 |
| 20260504202453 | 77 | 170 | 3.5 | 7.0 | 0.00 | 0.00 | 0.00 | 51 | 1017.1 |
| 20260504201950 | 77 | 123 | 6.1 | 11.3 | 0.00 | 0.00 | 0.00 | 52 | 1017.2 |
| 20260504201447 | 78 | 119 | 1.7 | 5.2 | 0.00 | 0.00 | 0.00 | 49 | 1016.9 |
| 20260504200944 | 78 | 148 | 2.6 | 7.0 | 0.00 | 0.00 | 0.00 | 49 | 1017.0 |
| 20260504200441 | 77 | 142 | 3.5 | 5.2 | 0.00 | 0.00 | 0.00 | 50 | 1017.1 |
| 20260504195937 | 77 | 133 | 4.3 | 6.1 | 0.00 | 0.00 | 0.00 | 50 | 1017.2 |
| 20260504195433 | 76 | 193 | 7.8 | 9.6 | 0.00 | 0.00 | 0.00 | 51 | 1017.0 |
| 20260504194930 | 77 | 131 | 3.5 | 5.2 | 0.00 | 0.00 | 0.00 | 51 | 1017.2 |
| 20260504194426 | 78 | 160 | 5.2 | 8.7 | 0.00 | 0.00 | 0.00 | 49 | 1017.3 |
| 20260504193922 | 78 | 114 | 4.3 | 7.0 | 0.00 | 0.00 | 0.00 | 49 | 1017.3 |
| 20260504193420 | 77 | 115 | 3.5 | 7.8 | 0.00 | 0.00 | 0.00 | 49 | 1017.4 |
| 20260504192918 | 79 | 101 | 1.7 | 7.0 | 0.00 | 0.00 | 0.00 | 47 | 1017.6 |
| 20260504192415 | 78 | 114 | 4.3 | 7.0 | 0.00 | 0.00 | 0.00 | 48 | 1017.3 |
| 20260504191914 | 78 | 120 | 4.3 | 6.1 | 0.00 | 0.00 | 0.00 | 45 | 1017.7 |
| 20260504191412 | 77 | 74 | 4.3 | 6.1 | 0.00 | 0.00 | 0.00 | 43 | 1017.6 |
| 20260504190906 | 78 | 136 | 6.1 | 7.8 | 0.00 | 0.00 | 0.00 | 44 | 1017.8 |
| 20260504190403 | 78 | 118 | 4.3 | 11.3 | 0.00 | 0.00 | 0.00 | 43 | 1017.8 |
| 20260504185859 | 79 | 63 | 2.6 | 5.2 | 0.00 | 0.00 | 0.00 | 43 | 1017.9 |
| 20260504185357 | 78 | 123 | 7.8 | 9.6 | 0.00 | 0.00 | 0.00 | 44 | 1017.9 |
| 20260504184853 | 78 | 134 | 7.8 | 9.6 | 0.00 | 0.00 | 0.00 | 43 | 1017.9 |
| 20260504184348 | 77 | 79 | 4.3 | 7.0 | 0.00 | 0.00 | 0.00 | 46 | 1017.9 |
| 20260504183844 | 78 | 113 | 2.6 | 4.3 | 0.00 | 0.00 | 0.00 | 43 | 1018.2 |
| 20260504183342 | 77 | 139 | 5.2 | 7.8 | 0.00 | 0.00 | 0.00 | 45 | 1018.2 |
| 20260504182839 | 77 | 118 | 0.9 | 5.2 | 0.00 | 0.00 | 0.00 | 44 | 1018.2 |
| 20260504182337 | 77 | 196 | 3.5 | 5.2 | 0.00 | 0.00 | 0.00 | 44 | 1018.1 |
| 20260504181833 | 77 | 143 | 1.7 | 6.1 | 0.00 | 0.00 | 0.00 | 45 | 1018.4 |
| 20260504181331 | 76 | 136 | 6.1 | 8.7 | 0.00 | 0.00 | 0.00 | 45 | 1018.3 |
| 20260504180830 | 77 | 83 | 1.7 | 2.6 | 0.00 | 0.00 | 0.00 | 42 | 1018.2 |
| 20260504180328 | 78 | 126 | 6.1 | 7.8 | 0.00 | 0.00 | 0.00 | 40 | 1018.5 |
| 20260504175826 | 77 | 350 | 4.3 | 6.1 | 0.00 | 0.00 | 0.00 | 43 | 1018.3 |
| 20260504175322 | 78 | 29 | 3.5 | 8.7 | 0.00 | 0.00 | 0.00 | 43 | 1018.4 |
| 20260504174821 | 79 | 50 | 4.3 | 7.0 | 0.00 | 0.00 | 0.00 | 42 | 1018.4 |
| 20260504174318 | 79 | 4 | 0.0 | 5.2 | 0.00 | 0.00 | 0.00 | 44 | 1018.6 |
| 20260504173814 | 78 | 24 | 1.7 | 2.6 | 0.00 | 0.00 | 0.00 | 42 | 1018.6 |
| 20260504173311 | 78 | 73 | 2.6 | 2.6 | 0.00 | 0.00 | 0.00 | 42 | 1018.7 |
| 20260504172808 | 78 | 185 | 0.9 | 4.3 | 0.00 | 0.00 | 0.00 | 41 | 1018.7 |
| 20260504172305 | 77 | 128 | 3.5 | 5.2 | 0.00 | 0.00 | 0.00 | 41 | 1018.8 |
| 20260504171800 | 77 | 46 | 1.7 | 6.1 | 0.00 | 0.00 | 0.00 | 41 | 1018.8 |
| 20260504171258 | 77 | 148 | 2.6 | 5.2 | 0.00 | 0.00 | 0.00 | 40 | 1018.8 |
| 20260504170755 | 77 | 23 | 0.9 | 6.1 | 0.00 | 0.00 | 0.00 | 41 | 1019.0 |
| 20260504170252 | 76 | 356 | 0.9 | 2.6 | 0.00 | 0.00 | 0.00 | 41 | 1018.9 |
| 20260504160210 | 76 | 346 | 0.9 | 7.0 | 0.00 | 0.00 | 0.00 | 44 | 1019.4 |
| 20260504151138 | 74 | 358 | 2.6 | 2.6 | 0.00 | 0.00 | 0.00 | 47 | 1019.4 |
| 20260504150636 | 75 | 13 | 1.7 | 4.3 | 0.00 | 0.00 | 0.00 | 47 | 1019.7 |
| 20260504150132 | 75 | 346 | 5.2 | 7.8 | 0.00 | 0.00 | 0.00 | 47 | 1019.8 |
| 20260504141101 | 72 | 6 | 4.3 | 7.0 | 0.00 | 0.00 | 0.00 | 51 | 1019.6 |
| 20260504140557 | 73 | 5 | 1.7 | 5.2 | 0.00 | 0.00 | 0.00 | 49 | 1019.8 |
| 20260504130522 | 69 | 337 | 0.0 | 0.9 | 0.00 | 0.00 | 0.00 | 74 | 1019.8 |
| 20260504110409 | 56 | 334 | 0.0 | 0.0 | 0.00 | 0.00 | 0.00 | 98 | 1019.0 |
| 20260504100326 | 55 | 328 | 0.0 | 0.0 | 0.00 | 0.00 | 0.00 | 97 | 1018.5 |
| 20260504081720 | 57 | 328 | 0.0 | 0.0 | 0.00 | 0.00 | 0.00 | 95 | 1018.6 |
| 20260504081216 | 57 | 328 | 0.0 | 0.0 | 0.00 | 0.00 | 0.00 | 95 | 1018.7 |
| 20260504080712 | 57 | 327 | 0.0 | 0.0 | 0.00 | 0.00 | 0.00 | 95 | 1018.8 |
| 20260504080209 | 57 | 327 | 0.0 | 0.0 | 0.00 | 0.00 | 0.00 | 95 | 1018.6 |
| 20260504070137 | 58 | 326 | 0.0 | 0.0 | 0.00 | 0.00 | 0.00 | 93 | 1018.6 |
| 20260504050525 | 62 | 23 | 0.0 | 0.0 | 0.00 | 0.00 | 0.00 | 85 | 1019.8 |
| 20260504050022 | 62 | 23 | 0.0 | 0.0 | 0.00 | 0.00 | 0.00 | 85 | 1019.9 |
| 20260504045519 | 62 | 23 | 0.0 | 0.0 | 0.00 | 0.00 | 0.00 | 84 | 1019.8 |
| 20260504045015 | 62 | 23 | 0.0 | 0.0 | 0.00 | 0.00 | 0.00 | 84 | 1019.9 |
| 20260504044512 | 63 | 23 | 0.0 | 0.0 | 0.00 | 0.00 | 0.00 | 84 | 1019.9 |
| 20260504044009 | 63 | 23 | 0.0 | 0.0 | 0.00 | 0.00 | 0.00 | 83 | 1019.9 |
| 20260504043506 | 63 | 23 | 0.0 | 0.0 | 0.00 | 0.00 | 0.00 | 82 | 1019.9 |
| 20260504043004 | 64 | 23 | 0.0 | 0.0 | 0.00 | 0.00 | 0.00 | 82 | 1019.7 |
| 20260504042500 | 64 | 23 | 0.0 | 0.0 | 0.00 | 0.00 | 0.00 | 81 | 1019.6 |
| 20260504041957 | 64 | 23 | 0.0 | 0.0 | 0.00 | 0.00 | 0.00 | 81 | 1019.6 |
| 20260504041453 | 64 | 23 | 0.0 | 0.0 | 0.00 | 0.00 | 0.00 | 81 | 1019.8 |
| 20260504040949 | 64 | 23 | 0.0 | 0.0 | 0.00 | 0.00 | 0.00 | 81 | 1019.6 |
| 20260504040447 | 64 | 23 | 0.0 | 0.0 | 0.00 | 0.00 | 0.00 | 80 | 1019.7 |
| 20260504035943 | 65 | 24 | 0.0 | 0.0 | 0.00 | 0.00 | 0.00 | 80 | 1019.9 |
| 20260504035441 | 65 | 23 | 0.0 | 0.0 | 0.00 | 0.00 | 0.00 | 80 | 1019.9 |
| 20260504034937 | 65 | 23 | 0.0 | 0.0 | 0.00 | 0.00 | 0.00 | 80 | 1020.0 |
| 20260504034435 | 65 | 23 | 0.0 | 0.0 | 0.00 | 0.00 | 0.00 | 79 | 1019.9 |
| 20260504033931 | 65 | 23 | 0.0 | 0.0 | 0.00 | 0.00 | 0.00 | 79 | 1019.8 |
| 20260504033429 | 65 | 23 | 0.0 | 0.0 | 0.00 | 0.00 | 0.00 | 79 | 1019.8 |
| 20260504032926 | 65 | 46 | 0.9 | 0.9 | 0.00 | 0.00 | 0.00 | 78 | 1019.5 |
| 20260504032423 | 66 | 22 | 0.0 | 0.9 | 0.00 | 0.00 | 0.00 | 78 | 1019.8 |
| 20260504031920 | 66 | 349 | 0.0 | 0.9 | 0.00 | 0.00 | 0.00 | 78 | 1019.8 |
| 20260504031417 | 66 | 350 | 0.0 | 1.7 | 0.00 | 0.00 | 0.00 | 77 | 1019.8 |
| 20260504030913 | 66 | 337 | 0.9 | 0.9 | 0.00 | 0.00 | 0.00 | 77 | 1019.8 |
| 20260504030410 | 65 | 8 | 0.0 | 2.6 | 0.00 | 0.00 | 0.00 | 77 | 1019.9 |
| 20260504025906 | 66 | 7 | 0.0 | 0.9 | 0.00 | 0.00 | 0.00 | 77 | 1019.8 |
| 20260504025403 | 66 | 15 | 0.0 | 0.9 | 0.00 | 0.00 | 0.00 | 77 | 1019.7 |
| 20260504024900 | 66 | 318 | 0.0 | 2.6 | 0.00 | 0.00 | 0.00 | 77 | 1019.7 |
| 20260504024356 | 66 | 359 | 0.0 | 2.6 | 0.00 | 0.00 | 0.00 | 76 | 1019.7 |
| 20260504023854 | 66 | 354 | 0.0 | 1.7 | 0.00 | 0.00 | 0.00 | 76 | 1019.8 |
| 20260504023350 | 66 | 356 | 0.0 | 0.9 | 0.00 | 0.00 | 0.00 | 76 | 1019.8 |
| 20260504022846 | 66 | 355 | 0.0 | 1.7 | 0.00 | 0.00 | 0.00 | 76 | 1019.8 |
| 20260504022343 | 66 | 356 | 0.0 | 2.6 | 0.00 | 0.00 | 0.00 | 75 | 1019.7 |
| 20260504021839 | 66 | 351 | 0.0 | 2.6 | 0.00 | 0.00 | 0.00 | 75 | 1019.7 |
| 20260504021337 | 66 | 353 | 0.0 | 1.7 | 0.00 | 0.00 | 0.00 | 75 | 1019.5 |
| 20260504020834 | 66 | 49 | 0.9 | 2.6 | 0.00 | 0.00 | 0.00 | 75 | 1019.4 |
| 20260504020331 | 66 | 0 | 0.0 | 1.7 | 0.00 | 0.00 | 0.00 | 75 | 1019.3 |
| 20260504015826 | 66 | 15 | 0.9 | 1.7 | 0.00 | 0.00 | 0.00 | 74 | 1019.2 |
| 20260504015323 | 66 | 16 | 0.0 | 1.7 | 0.00 | 0.00 | 0.00 | 74 | 1019.1 |
| 20260504014819 | 66 | 82 | 0.9 | 2.6 | 0.00 | 0.00 | 0.00 | 74 | 1019.1 |
| 20260504014315 | 66 | 15 | 0.9 | 1.7 | 0.00 | 0.00 | 0.00 | 73 | 1019.2 |
| 20260504013813 | 67 | 357 | 0.0 | 5.2 | 0.00 | 0.00 | 0.00 | 73 | 1019.0 |
| 20260504013311 | 67 | 354 | 0.9 | 2.6 | 0.00 | 0.00 | 0.00 | 72 | 1018.9 |
| 20260504012807 | 67 | 115 | 3.5 | 6.1 | 0.00 | 0.00 | 0.00 | 72 | 1019.0 |
| 20260504012305 | 67 | 329 | 1.7 | 5.2 | 0.00 | 0.00 | 0.00 | 72 | 1018.7 |
| 20260504011802 | 67 | 313 | 0.0 | 4.3 | 0.00 | 0.00 | 0.00 | 72 | 1018.8 |
| 20260504011258 | 67 | 6 | 0.0 | 2.6 | 0.00 | 0.00 | 0.00 | 71 | 1018.8 |
| 20260504010749 | 67 | 98 | 0.9 | 1.7 | 0.00 | 0.00 | 0.00 | 70 | 1018.9 |
| 20260504010245 | 67 | 20 | 0.0 | 1.7 | 0.00 | 0.00 | 0.00 | 70 | 1018.9 |
| 20260504005742 | 67 | 352 | 0.9 | 2.6 | 0.00 | 0.00 | 0.00 | 69 | 1018.7 |
| 20260504005239 | 67 | 100 | 3.5 | 4.3 | 0.00 | 0.00 | 0.00 | 68 | 1018.4 |
| 20260504004736 | 67 | 188 | 0.0 | 5.2 | 0.00 | 0.00 | 0.00 | 67 | 1018.5 |
| 20260504004233 | 67 | 113 | 3.5 | 5.2 | 0.00 | 0.00 | 0.00 | 67 | 1018.5 |
| 20260504003730 | 68 | 58 | 1.7 | 6.1 | 0.00 | 0.00 | 0.00 | 66 | 1018.3 |
| 20260504003227 | 68 | 46 | 0.9 | 2.6 | 0.00 | 0.00 | 0.00 | 65 | 1018.6 |
| 20260504002724 | 68 | 149 | 0.9 | 2.6 | 0.00 | 0.00 | 0.00 | 64 | 1018.5 |
| 20260504002220 | 68 | 27 | 0.9 | 6.1 | 0.00 | 0.00 | 0.00 | 62 | 1018.4 |
| 20260504001718 | 68 | 359 | 0.9 | 5.2 | 0.00 | 0.00 | 0.00 | 62 | 1018.3 |
| 20260504001215 | 68 | 24 | 0.9 | 4.3 | 0.00 | 0.00 | 0.00 | 61 | 1018.1 |
| 20260504000711 | 69 | 353 | 0.0 | 1.7 | 0.00 | 0.00 | 0.00 | 61 | 1018.5 |
| 20260504000208 | 69 | 13 | 0.9 | 2.6 | 0.00 | 0.00 | 0.00 | 60 | 1018.4 |
| 20260503235706 | 69 | 25 | 1.7 | 6.1 | 0.00 | 0.00 | 0.00 | 59 | 1018.2 |
| 20260503235204 | 69 | 145 | 2.6 | 6.1 | 0.00 | 0.00 | 0.00 | 58 | 1018.5 |
| 20260503234701 | 70 | 344 | 0.0 | 4.3 | 0.00 | 0.00 | 0.00 | 57 | 1018.5 |
| 20260503234200 | 70 | 354 | 0.0 | 5.2 | 0.00 | 0.00 | 0.00 | 56 | 1018.3 |
| 20260503233656 | 70 | 13 | 0.9 | 0.9 | 0.00 | 0.00 | 0.00 | 54 | 1018.5 |
| 20260503233152 | 71 | 25 | 0.9 | 2.6 | 0.00 | 0.00 | 0.00 | 52 | 1018.4 |
| 20260503232649 | 71 | 142 | 4.3 | 6.1 | 0.00 | 0.00 | 0.00 | 51 | 1018.4 |
| 20260503232146 | 71 | 24 | 0.0 | 4.3 | 0.00 | 0.00 | 0.00 | 50 | 1018.1 |